Location: Obersdorf
(47.4079°N, 10.2781°E)
Time: 21:59:58
(UTC+01:00)

NOAA 19 - Visible Passes

Search period start: 01 December 2021 00:00
Search period end: 11 December 2021 00:00
Orbit: 840 x 861 km, 99.2° (Epoch: 01 December)

Date Brightness Start Highest point End Pass type
(mag) Time Alt. Az. Time Alt. Az. Time Alt. Az.
01 Dec 7.8 07:01:10 10° NE 07:05:39 25° E 07:10:06 10° SSE visible
01 Dec 5.1 18:30:20 10° SSE 18:35:42 62° ENE 18:41:06 10° N visible
01 Dec 7.4 20:12:41 10° SW 20:16:47 21° W 20:20:54 10° NW visible
02 Dec 8.0 06:49:44 10° NE 06:53:42 20° E 06:57:40 10° SE visible
02 Dec 5.3 18:18:42 10° SE 18:23:56 50° ENE 18:29:13 10° N visible
02 Dec 7.1 20:00:18 10° SSW 20:04:51 27° W 20:09:26 10° NW visible
03 Dec 8.1 06:38:27 10° NE 06:41:44 16° E 06:45:00 10° SE visible
03 Dec 5.5 18:07:08 10° SE 18:12:12 41° ENE 18:17:17 10° N visible
03 Dec 6.7 19:48:03 10° SSW 19:52:55 33° W 19:57:51 10° NNW visible
04 Dec 8.3 06:27:31 10° ENE 06:29:45 12° E 06:31:58 10° ESE visible
04 Dec 5.8 17:55:39 10° SE 18:00:28 33° ENE 18:05:20 10° N visible
04 Dec 6.3 19:35:54 10° SSW 19:41:01 41° W 19:46:12 10° NNW visible
05 Dec 6.0 17:44:15 10° ESE 17:48:47 27° ENE 17:53:19 10° N visible
05 Dec 5.9 19:23:51 10° S 19:29:09 51° W 19:34:30 10° NNW visible
06 Dec 6.2 17:32:57 10° ESE 17:37:05 23° ENE 17:41:17 10° N visible
06 Dec 5.5 19:11:53 10° S 19:17:18 64° WSW 19:22:46 10° NNW visible
07 Dec 6.4 17:21:44 10° E 17:25:27 19° NE 17:29:09 10° NNE visible
07 Dec 5.2 19:00:01 10° SSE 19:05:28 80° WSW 19:10:59 10° NNW visible
07 Dec 8.1 20:44:56 10° WSW 20:46:59 12° W 20:49:04 10° WNW visible
08 Dec 6.6 17:10:41 10° E 17:13:48 16° NE 17:16:57 10° NNE visible
08 Dec 5.0 18:48:11 10° SSE 18:53:39 83° ENE 18:59:10 10° NNW visible
08 Dec 7.8 20:31:49 10° SW 20:35:00 16° W 20:38:11 10° NW visible
09 Dec 7.6 07:07:13 10° NE 07:11:54 27° E 07:16:32 10° SSE visible
09 Dec 6.8 16:59:50 10° ENE 17:02:12 13° NE 17:04:33 10° NNE visible
09 Dec 5.1 18:36:27 10° SSE 18:41:51 68° ENE 18:47:19 10° N visible
09 Dec 7.5 20:19:09 10° SW 20:23:01 20° W 20:26:55 10° NW visible
10 Dec 7.9 06:55:44 10° NE 06:59:58 22° E 07:04:10 10° SE visible
10 Dec 5.2 18:24:47 10° SE 18:30:05 55° ENE 18:35:26 10° N visible
10 Dec 7.2 20:06:41 10° SSW 20:11:04 24° W 20:15:29 10° NW visible
